sat.trackr.live / text

‹ back to catalog

STARLINK-5808

NORAD 56927 · 2023-083BD

PAYLOAD ACTIVE UNKNOWN

§ Identity

Operator
Country
US
Launch date
2023-06-12
Launch site
AFETR
Launch vehicle
Mass (kg)
RCS (m²)

Purposes: comms

External: N2YO · Heavens-Above · Gunter

§ Orbital elements

Epoch: 2026-09-20T20:32:39.698592Z

Period
94.27 min
Inclination
43.0030°
Eccentricity
0.0001086
Mean motion
15.27572908 rev/d
Perigee alt
482.3 km
Apogee alt
483.8 km
Semi-major
6,861.2 km
B*
-1.0251e-5
RAAN
317.5555°
Arg perigee
272.2397°
Mean anomaly
87.8330°
Rev number
18,269

§ Raw data

STARLINK-58081 56927U 23083BD  26263.85601503 -.00000544  00000+0 -10251-4 0  99992 56927  43.0030 317.5555 0001086 272.2397  87.8330 15.27572908182690

JSON: /api/v1/satellites/56927 · /tle

For live sub-satellite position, see the globe view (requires WebGL).

§ Visibility from observer

Set your observer location to see the next 7 days of passes ≥ 10°. The values pass through the URL so the page stays shareable.

No JS? Fill the form by hand. The geolocation button needs JavaScript.